Regional Weather Roundup
Issued by NWS

Home | Current Version | Previous Version | Text Only | Print | Product List | Glossary Off
Versions: 1 2 3 4 5 6 7 8 9 10 11 12 13 14 15 16 17 18 19 20 21 22 23 24 25 26 27 28 29 30 31 32 33 34 35 36 37 38 39 40 41 42 43 44 45 46 47 48 49 50

000
ASUS43 KLMK 231210
RWRKY
KENTUCKY REGIONAL WEATHER ROUNDUP
NATIONAL WEATHER SERVICE LOUISVILLE KY
800 AM EDT SAT MAY 23 2015

NOTE "FAIR" INDICATES FEW OR NO CLOUDS BELOW 12,000 FEET
WITH NO SIGNIFICANT WEATHER AND/OR OBSTRUCTIONS TO VISIBILITY.

KYZ001>023-026-027-061>063-070>075-231300-
WESTERN AND SOUTH CENTRAL KENTUCKY

CITY           SKY/WX    TMP DP  RH WIND       PRES   REMARKS
PADUCAH        CLOUDY    60  56  86 CALM      30.33R
HENDERSON      PTSUNNY   59  55  88 CALM      30.34R
OWENSBORO      PTSUNNY   60  56  87 CALM      30.36R
HOPKINSVILLE   CLOUDY    59  52  78 E3        30.34R
BOWLING GREEN  PTSUNNY   57  52  83 CALM      30.36R
GLASGOW        PTSUNNY   55  50  83 CALM      30.37R
$$

KYZ024-025-028>034-038-045-046-053-231300-
NORTH CENTRAL KENTUCKY

CITY           SKY/WX    TMP DP  RH WIND       PRES   REMARKS
LOUISVILLE/SDF PTSUNNY   58  52  80 CALM      30.37R
LOUISVILLE/LOU PTSUNNY   58  51  78 CALM      30.37R
FORT KNOX      PTSUNNY   55  52  89 CALM      30.35S
$$

KYZ035>037-039>044-047>052-055>060-089>105-231300-
NORTHEAST KENTUCKY

CITY           SKY/WX    TMP DP  RH WIND       PRES   REMARKS
LEXINGTON      PTSUNNY   55  49  80 CALM      30.38R
COVINGTON      CLOUDY    58  49  72 E5        30.37R
FRANKFORT      PTSUNNY   53  50  89 CALM      30.37R
$$

KYZ054-064>069-076>088-106>120-231300-
SOUTHEAST KENTUCKY

CITY           SKY/WX    TMP DP  RH WIND       PRES   REMARKS
JACKSON        MOSUNNY   54  46  74 CALM      30.40R
LONDON         CLOUDY    52  45  77 CALM      30.40R
SOMERSET       MOSUNNY   50  50 100 CALM      30.41R
MIDDLESBORO    PTSUNNY   49  47  93 CALM      30.42R
MONTICELLO     PTSUNNY   54  50  86 CALM      30.42R
$$




USA.gov is the U.S. government's official web portal to all federal, state and local government web resources and services.